Back to catalog

STARLINK-2497

AliveCommunicationsVLEO
NORAD 48455·PAYLOAD·🇺🇸 United States

Launched May 9, 2021 from Cape Canaveral Space Force Station

Loading…

Next Passes (next 24 hours)

TLE

FreshSource: CelesTrak SupGP

Epoch: Sep 14, 2026, 20:59 UTC

1 48455C 21040AD  26257.87479167  .00009382  00000+0  30158-3 0  2572
2 48455  53.1583  17.9577 0001199  90.0263 165.9887 15.31709216    19

Track STARLINK-2497 in real time with AllMySat

Download on the App Store